FW4441 Weather Reports


time (UTC)temp
F
wind
direction
speed
knots
gust
knots
rain 1hr
in
rain 24hr
in
rain mn
in
humidity
%
barometer
mb
20260510020032 73 242 0.9 2.6 0.00 0.00 0.00 39 1012.4
20260510014532 74 201 0.9 2.6 0.00 0.00 0.00 38 1012.6
20260510011531 75 34 2.6 7.0 0.00 0.00 0.00 35 1012.7
20260510004530 78 38 3.5 7.0 0.00 0.00 0.00 33 1012.9
20260510003031 79 37 4.3 8.7 0.00 0.00 0.00 33 1012.9
20260510001531 77 46 3.5 9.6 0.00 0.00 0.00 33 1013.0
20260510000032 78 44 4.3 11.3 0.00 0.00 0.00 33 1013.1
20260509234530 80 31 5.2 9.6 0.00 0.00 0.00 33 1013.3
20260509233029 81 38 3.5 7.8 0.00 0.00 0.00 34 1013.6
20260509231532 81 25 5.2 8.7 0.00 0.00 0.00 34 1013.8
20260509230030 82 16 5.2 8.7 0.00 0.00 0.00 35 1014.1
20260509224532 81 17 3.5 9.6 0.00 0.00 0.00 36 1014.4
20260509223031 80 19 5.2 8.7 0.00 0.00 0.00 37 1014.6
20260509221646 79 20 6.1 10.4 0.00 0.00 0.00 38 1014.9
20260509220054 79 24 7.8 13.9 0.00 0.00 0.00 38 1015.0
20260509214532 78 27 7.8 12.2 0.00 0.00 0.00 40 1015.2
20260509213106 79 29 7.8 12.2 0.00 0.00 0.00 41 1015.4
20260509211530 79 9 6.1 10.4 0.00 0.00 0.00 41 1015.7
20260509210032 78 9 6.1 9.6 0.00 0.00 0.00 42 1015.8
20260509203031 77 18 7.0 11.3 0.00 0.00 0.00 44 1016.1
20260509200030 76 23 7.8 11.3 0.00 0.00 0.00 46 1016.7
20260509194529 75 4 5.2 10.4 0.00 0.00 0.00 48 1017.0
20260509193031 74 359 5.2 9.6 0.00 0.00 0.00 49 1017.2
20260509191607 73 354 5.2 11.3 0.00 0.00 0.00 50 1017.3
20260509190030 72 308 3.5 7.8 0.00 0.00 0.00 51 1017.5
20260509183031 71 297 2.6 6.1 0.00 0.00 0.00 52 1018.0
20260509181531 70 310 2.6 5.2 0.00 0.00 0.00 53 1018.1
20260509180029 69 260 1.7 5.2 0.00 0.00 0.00 53 1018.1
20260509174530 68 314 1.7 5.2 0.00 0.00 0.00 54 1018.2
20260509173030 66 294 1.7 4.3 0.00 0.00 0.00 56 1018.4
20260509170032 65 332 1.7 4.3 0.00 0.00 0.00 60 1018.9
20260509164532 63 312 0.9 2.6 0.00 0.00 0.00 61 1018.9
20260509163031 61 309 0.9 3.5 0.00 0.00 0.00 64 1019.1
20260509161531 60 329 1.7 4.3 0.00 0.00 0.00 66 1019.2
20260509154530 57 34 3.5 5.2 0.00 0.00 0.00 72 1019.5
20260509153031 55 342 1.7 5.2 0.00 0.00 0.00 75 1019.4
20260509151532 55 320 2.6 4.3 0.00 0.00 0.00 77 1019.3
20260509150030 52 30 0.9 3.5 0.00 0.00 0.00 81 1019.3
20260509143028 48 149 0.0 1.7 0.00 0.00 0.00 85 1019.3
20260509140030 44 189 1.7 3.5 0.00 0.00 0.00 89 1019.1
20260509131554 43 318 0.0 1.7 0.00 0.00 0.00 87 1019.0
20260509130032 45 302 0.9 3.5 0.00 0.00 0.00 86 1018.7
20260509124530 46 173 0.9 2.6 0.00 0.00 0.00 86 1018.7
20260509123030 46 143 0.0 2.6 0.00 0.00 0.00 86 1018.6
20260509121531 45 180 0.0 2.6 0.00 0.00 0.00 85 1018.7
20260509120040 46 145 0.0 1.7 0.00 0.00 0.00 85 1018.6
20260509113029 46 161 0.9 2.6 0.00 0.00 0.00 83 1018.6
20260509111535 47 200 1.7 3.5 0.00 0.00 0.00 81 1018.5
20260509104530 50 36 1.7 5.2 0.00 0.00 0.00 78 1018.6
20260509103032 51 34 2.6 4.3 0.00 0.00 0.00 78 1018.7
20260509101529 51 36 2.6 4.3 0.00 0.00 0.00 78 1018.7
20260509100108 51 39 2.6 4.3 0.00 0.00 0.00 77 1018.7
20260509094529 51 32 3.5 5.2 0.00 0.00 0.00 77 1018.7
20260509093029 50 37 2.6 4.3 0.00 0.00 0.00 76 1018.8
20260509091531 51 20 2.6 3.5 0.00 0.00 0.00 76 1018.9
20260509090028 51 48 1.7 4.3 0.00 0.00 0.00 76 1019.0
20260509084530 50 336 0.9 3.5 0.00 0.00 0.00 77 1019.1
20260509083033 50 289 0.9 4.3 0.00 0.00 0.00 76 1019.2
20260509081531 51 246 2.6 6.1 0.00 0.00 0.00 74 1019.3
20260509080107 52 207 1.7 3.5 0.00 0.00 0.00 74 1019.5
20260509073031 53 185 3.5 7.8 0.00 0.00 0.00 73 1019.5
20260509071531 53 193 3.5 7.8 0.00 0.00 0.00 72 1019.5
20260509070032 53 211 3.5 7.0 0.00 0.00 0.00 70 1019.6
20260509064530 54 240 2.6 6.1 0.00 0.00 0.00 68 1019.7
20260509063031 54 299 0.0 4.3 0.00 0.00 0.00 68 1019.9
20260509061538 54 284 1.7 5.2 0.00 0.00 0.00 68 1019.8
20260509060032 54 290 0.9 2.6 0.00 0.00 0.00 67 1019.8
20260509054529 55 306 0.9 4.3 0.00 0.00 0.00 65 1019.7
20260509053031 56 191 2.6 8.7 0.00 0.00 0.00 64 1019.7
20260509043030 55 146 3.5 6.1 0.00 0.00 0.00 64 1019.3
20260509041646 56 123 0.9 5.2 0.00 0.00 0.00 63 1019.1
20260509040029 56 177 1.7 3.5 0.00 0.00 0.00 63 1018.9
20260509034530 57 223 3.5 5.2 0.00 0.00 0.00 61 1018.6
20260509033031 58 218 4.3 7.8 0.00 0.00 0.00 59 1018.4
20260509031531 59 230 6.1 11.3 0.00 0.00 0.00 56 1018.2
20260509030030 61 225 7.0 13.9 0.00 0.00 0.00 54 1018.0
20260509024529 61 214 8.7 15.6 0.00 0.00 0.00 54 1017.9
20260509023032 62 214 8.7 13.9 0.00 0.00 0.00 52 1017.8
20260509021616 63 214 8.7 13.9 0.00 0.00 0.00 51 1017.7